[[{"header":{"parameterUnit":"m.s-1","parameterCategory":1,"la1":30.2991,"la2":30.254,"lo1":-89.0895,"lo2":-89.0444,"dy":0.0017,"dx":0.0017,"nx":28,"ny":28,"refTime":"2023-08-12T03:00:00:Z","depth":0,"parameterNumber":2,"parameterNumberName":"U-component_of_WINDS"},"data":[0,0,0,0,0,0,0,0,0,0,0,0,0,0,0,0,0,0,0,0,0,0,0,0,0,0,0,0,0,0,0,0,0,0,0,0,0,0,0,0,0,0,0,0,0,0,0,0,0,0,0,0,0,0,0,0,0,0,5.3494,5.3496,0,5.3666,5.3668,5.367,5.3614,5.361,5.3607,5.3603,5.378,5.3788,5.3796,0,0,0,0,0,0,0,0,0,0,0,0,0,5.3117,5.3124,5.3494,5.3496,5.3498,5.3666,5.3668,5.3671,5.3615,5.361,5.3606,5.3601,5.3777,5.3787,5.3797,0,0,0,0,0,0,0,0,0,0,0,0,0,5.3284,5.3126,5.3494,5.3491,5.3492,5.3665,5.3668,5.3671,5.3616,5.361,5.3605,5.3599,5.3774,5.3786,5.3798,5.3985,0,0,5.3836,5.3841,0,0,0,0,0,0,0,0,5.3274,5.3298,5.3489,5.3491,5.3493,5.3613,5.36,5.3777,5.3617,5.3569,5.3603,5.3597,5.3729,5.3745,5.3789,5.3993,5.4001,5.3837,5.3844,5.3849,5.3853,0,0,0,0,0,0,0,5.3263,5.329,5.3562,5.3492,5.3494,5.3481,5.3498,5.3633,5.3678,5.3573,5.3569,5.359,5.3729,5.3777,5.3793,5.4004,5.3836,5.3847,5.3855,5.386,5.4368,5.4374,0,0,0,0,0,0,5.325,5.3281,5.3557,5.3567,5.3368,5.3492,5.3512,5.358,5.3676,5.3686,5.3595,5.3587,5.3759,5.3779,5.3799,5.4023,5.3849,5.3861,5.3868,5.4362,5.437,5.4376,0,0,0,0,0,0,5.3242,5.3275,5.355,5.3423,5.3457,5.3504,5.3582,5.3586,5.3635,5.3693,5.3701,5.3636,5.3756,5.3782,5.3939,5.4028,5.3866,5.3877,5.4355,5.4365,5.4373,5.4473,0,0,0,0,0,0,5.3232,5.3273,5.3344,5.3425,5.3464,5.3687,5.3587,5.3594,5.3656,5.3647,5.3734,5.3743,5.3753,5.3921,5.3951,5.4042,5.3887,5.4347,5.4359,5.437,5.4462,5.4485,5.4504,0,0,0,0,0,5.3218,5.3366,5.3348,5.3382,5.3555,5.3692,5.3715,5.3724,5.3663,5.3736,5.3773,5.374,5.4014,5.3937,5.3971,5.4067,5.4342,5.4356,5.4369,5.4453,5.4481,5.4504,0,0,0,0,0,0,5.3295,5.3377,5.3358,5.3536,5.3608,5.3683,5.3774,5.3753,5.3843,5.3831,5.3839,5.3859,5.402,5.4059,5.3973,5.4253,5.4169,5.419,5.4221,5.4248,5.4268,5.4255,5.3897,0,0,0,0,0,5.3333,5.3438,5.3504,5.3655,5.3691,5.3727,5.3787,5.3788,5.3862,5.3893,5.3941,5.4015,5.4117,5.4185,5.4282,5.4468,5.4485,5.4551,5.4572,5.4589,5.4607,5.4706,5.4736,5.4422,5.4422,5.4422,0,0,5.3412,5.3469,5.3535,5.3672,5.3727,5.3835,5.3753,5.3871,5.3952,5.3911,5.4061,5.41,5.4183,5.4355,5.4433,5.4392,5.4697,5.4606,5.4619,5.4628,5.4724,5.4753,5.478,5.4432,5.443,5.4428,0,0,5.3611,5.3665,5.3796,5.3854,5.3938,5.3961,5.3992,5.4071,5.4095,5.4246,5.4217,5.4313,5.449,5.455,5.4603,5.4824,5.4797,5.4856,5.4965,5.5062,5.5087,5.5109,5.5187,5.5215,5.4874,5.4874,5.4874,0,5.3698,5.386,5.3867,5.3988,5.4048,5.4015,5.4148,5.4203,5.4316,5.4358,5.4311,5.4532,5.4585,5.477,5.4824,5.4869,5.4904,5.4846,5.5083,5.5105,5.5126,5.52,5.5229,5.488,5.488,5.4879,5.4878,0,5.3963,5.4076,5.4172,5.4281,5.4352,5.4478,5.4503,5.4575,5.4569,5.4596,5.4751,5.4814,5.4923,5.4967,5.4963,5.5152,5.5124,5.508,5.4996,5.5162,5.5232,5.526,5.489,5.4887,5.4886,5.4884,0,0,5.4215,5.4325,5.436,5.4409,5.45,5.4587,5.4712,5.4818,5.4879,5.4958,5.5062,5.5212,5.5172,5.5232,5.5235,5.532,5.549,5.5266,5.5268,5.5305,5.57,5.5731,5.5764,5.5472,5.5478,5.5482,5.5692,0,5.4421,5.4639,5.4648,5.4847,5.4951,5.4921,5.5029,5.5097,5.5126,5.5218,5.5249,5.5355,5.5295,5.5331,5.5415,5.5451,5.5569,5.5437,5.5569,5.5573,5.5548,5.58,5.5834,5.6029,5.572,5.5724,5.5728,0,5.469,5.4776,5.4986,5.506,5.5104,5.5202,5.5299,5.5388,5.5463,5.5478,5.5546,5.5536,5.5662,5.5575,5.5749,5.5659,5.5713,5.574,5.5747,5.5759,5.566,5.5818,5.6092,5.6121,5.5771,5.5767,5.5764,0,5.4852,5.5021,5.5167,5.521,5.5301,5.537,5.5411,5.5481,5.5544,5.563,5.567,5.577,5.5824,5.5901,5.5918,5.5853,5.6092,5.6006,5.6107,5.6107,5.6159,5.6155,5.6444,5.6196,5.6195,5.6195,5.6194,0,5.508,5.5209,5.5241,5.5331,5.5474,5.5483,5.5624,5.5661,5.5723,5.582,5.58,5.5891,5.5908,5.6003,5.6017,5.6158,5.6183,5.6198,5.62,5.62,5.6197,5.6235,5.6221,5.6203,5.6201,5.6199,5.6198,0,5.5285,5.5311,5.5469,5.5542,5.5564,5.5666,5.5728,5.5815,5.584,5.5963,5.5992,5.6033,5.6143,5.6168,5.6299,5.6308,5.6475,5.6465,5.645,5.6449,5.6548,5.6538,5.687,5.6914,5.6638,5.6641,5.6643,0,5.5428,5.5527,5.561,5.5673,5.5717,5.5819,5.5883,5.5896,5.5963,5.6056,5.613,5.6238,5.6325,5.6502,5.6544,5.6643,5.6634,5.6744,5.6649,5.6645,5.6634,5.6628,5.6637,5.6762,5.6765,5.6767,5.6769,0,5.568,5.5688,5.578,5.5878,5.5955,5.6032,5.6106,5.6158,5.6181,5.6257,5.6369,5.6436,5.6569,5.6676,5.6776,5.6818,5.6798,5.6798,5.6827,5.6827,5.6813,5.682,5.6498,5.6791,5.6788,5.6787,5.6786,5.6785,5.5858,5.5943,5.6015,5.6118,5.6175,5.6244,5.6328,5.6364,5.6458,5.6566,5.6568,5.669,5.6762,5.6894,5.6942,5.7037,5.7003,5.7045,5.7055,5.7065,5.7073,5.6799,5.7056,5.7055,5.7055,5.7054,5.7054,0,5.6107,5.6152,5.6247,5.635,5.6431,5.6404,5.6484,5.6554,5.6661,5.673,5.6815,5.6943,5.7046,5.7096,5.7198,5.7265,5.7257,5.7291,5.7285,5.7295,5.7099,5.7063,5.7295,5.7295,5.7295,5.7295,5.7294,5.7294,5.6247,5.6389,5.6405,5.6575,5.6619,5.6737,5.6785,5.6848,5.6903,5.7047,5.7132,5.7163,5.7224,5.733,5.7424,5.7435,5.7473,5.7511,5.7518,5.7334,5.7309,5.7286,5.7252,5.752,5.752,5.7707,5.7708,5.771]},{"header":{"parameterUnit":"m.s-1","parameterCategory":1,"la1":30.2991,"la2":30.254,"lo1":-89.0895,"lo2":-89.0444,"dy":0.0017,"dx":0.0017,"nx":28,"ny":28,"refTime":"2023-08-12T03:00:00:Z","depth":0,"parameterNumber":3,"parameterNumberName":"V-component_of_WINDS"},"data":[0,0,0,0,0,0,0,0,0,0,0,0,0,0,0,0,0,0,0,0,0,0,0,0,0,0,0,0,0,0,0,0,0,0,0,0,0,0,0,0,0,0,0,0,0,0,0,0,0,0,0,0,0,0,0,0,0,0,0.1444,0.1444,0,0.1469,0.1469,0.1469,0.1451,0.145,0.1449,0.1449,0.1478,0.1479,0.1481,0,0,0,0,0,0,0,0,0,0,0,0,0,0.1382,0.1383,0.1444,0.1444,0.1444,0.1469,0.1469,0.1469,0.1451,0.145,0.1449,0.1448,0.1477,0.1479,0.1481,0,0,0,0,0,0,0,0,0,0,0,0,0,0.1408,0.1384,0.1443,0.1438,0.1438,0.1468,0.1469,0.1469,0.1451,0.145,0.1449,0.1448,0.1476,0.1479,0.1481,0.152,0,0,0.1488,0.1489,0,0,0,0,0,0,0,0,0.1407,0.141,0.1438,0.1438,0.1438,0.1455,0.1458,0.1486,0.1452,0.1446,0.1449,0.1447,0.1471,0.1474,0.1482,0.1521,0.1522,0.1488,0.149,0.1491,0.1491,0,0,0,0,0,0,0,0.1405,0.1409,0.1454,0.1439,0.1439,0.1435,0.1437,0.1463,0.1466,0.1447,0.1445,0.1448,0.1471,0.1479,0.1482,0.1523,0.1488,0.149,0.1492,0.1492,0.1594,0.1596,0,0,0,0,0,0,0.1403,0.1408,0.1453,0.1454,0.1419,0.1437,0.144,0.1451,0.1465,0.1466,0.1449,0.1447,0.1476,0.1479,0.1483,0.1529,0.1491,0.1493,0.1494,0.1593,0.1595,0.1596,0,0,0,0,0,0,0.1402,0.1407,0.1452,0.1431,0.1436,0.1439,0.1452,0.1452,0.146,0.1467,0.1468,0.1457,0.1475,0.148,0.151,0.153,0.1494,0.1496,0.1591,0.1593,0.1595,0.1621,0,0,0,0,0,0,0.14,0.1407,0.1421,0.1431,0.1437,0.1478,0.1454,0.1454,0.1464,0.1462,0.1475,0.1476,0.1475,0.1507,0.1513,0.1532,0.1498,0.159,0.1592,0.1595,0.1619,0.1624,0.1628,0,0,0,0,0,0.1398,0.1429,0.1422,0.1428,0.1455,0.1479,0.1483,0.148,0.1466,0.148,0.1484,0.1475,0.1526,0.151,0.1516,0.1537,0.1589,0.1592,0.1594,0.1617,0.1623,0.1628,0,0,0,0,0,0,0.1423,0.143,0.1423,0.1457,0.1468,0.1476,0.1495,0.1487,0.1502,0.15,0.1496,0.1499,0.1531,0.1537,0.1519,0.1575,0.1555,0.156,0.157,0.1576,0.1581,0.1579,0.15,0,0,0,0,0,0.1432,0.145,0.1455,0.1485,0.1491,0.1492,0.1502,0.1499,0.151,0.1514,0.1521,0.1533,0.1551,0.1564,0.1581,0.1619,0.1622,0.1636,0.1641,0.1645,0.1649,0.1669,0.1676,0.1606,0.1606,0.1606,0,0,0.1451,0.1457,0.147,0.149,0.1498,0.1517,0.1496,0.1517,0.1532,0.1518,0.1547,0.1552,0.1565,0.1599,0.1614,0.1605,0.1669,0.1649,0.1652,0.1654,0.1673,0.1679,0.1685,0.1608,0.1607,0.1607,0,0,0.1497,0.1503,0.1529,0.1536,0.1547,0.1548,0.1554,0.1563,0.1565,0.1594,0.1584,0.1601,0.1633,0.1643,0.1652,0.1699,0.1692,0.1705,0.1731,0.175,0.1756,0.1761,0.1778,0.1784,0.1709,0.1709,0.1709,0,0.1521,0.1549,0.1543,0.1565,0.1575,0.1561,0.1587,0.1595,0.1612,0.1619,0.1607,0.1647,0.1655,0.1691,0.1702,0.171,0.1717,0.1704,0.1755,0.176,0.1765,0.1781,0.1787,0.1711,0.1711,0.171,0.171,0,0.1577,0.1596,0.1616,0.1631,0.1642,0.1666,0.1664,0.1677,0.1672,0.1674,0.1703,0.1711,0.173,0.1738,0.1734,0.1773,0.1767,0.1755,0.1736,0.1773,0.1788,0.1794,0.1713,0.1712,0.1712,0.1712,0,0,0.164,0.165,0.1658,0.1664,0.1675,0.169,0.1713,0.173,0.1741,0.1753,0.1772,0.1799,0.1788,0.1798,0.1795,0.1812,0.1849,0.1799,0.1799,0.1808,0.1893,0.1902,0.1909,0.1843,0.1844,0.1845,0.1892,0,0.1687,0.1726,0.1721,0.1759,0.1777,0.1764,0.1784,0.1793,0.1795,0.1811,0.1813,0.1832,0.1816,0.1822,0.1838,0.1841,0.1866,0.1838,0.1863,0.1863,0.186,0.1917,0.1927,0.197,0.1898,0.1899,0.1899,0,0.1747,0.1759,0.1799,0.1805,0.1813,0.1831,0.1846,0.1861,0.1871,0.1871,0.1881,0.1875,0.1898,0.1877,0.191,0.189,0.19,0.1903,0.1905,0.1908,0.1884,0.1922,0.1984,0.1991,0.1909,0.1908,0.1907,0,0.1789,0.1816,0.1843,0.1849,0.1857,0.187,0.1875,0.1883,0.1893,0.1906,0.1913,0.1929,0.1938,0.195,0.1948,0.1933,0.1982,0.1961,0.1983,0.1983,0.1995,0.1994,0.206,0.2,0.2,0.2,0.1999,0,0.1842,0.1867,0.1862,0.1879,0.1906,0.19,0.1927,0.193,0.1937,0.1954,0.1944,0.1961,0.1956,0.1973,0.1972,0.1999,0.2003,0.2004,0.2004,0.2005,0.2005,0.2013,0.201,0.2001,0.2001,0.2001,0.2,0,0.1895,0.1893,0.1921,0.1926,0.1928,0.1948,0.1953,0.1969,0.1969,0.1991,0.1996,0.1996,0.2015,0.2014,0.2035,0.2034,0.2068,0.2064,0.2064,0.2064,0.2086,0.2084,0.2159,0.2169,0.2102,0.2103,0.2103,0,0.193,0.1948,0.1955,0.1965,0.197,0.1987,0.1997,0.1991,0.2002,0.2013,0.2028,0.2045,0.2059,0.209,0.2093,0.2109,0.2105,0.213,0.2108,0.2109,0.2106,0.2106,0.2107,0.2135,0.2136,0.2137,0.2137,0,0.1991,0.1989,0.2003,0.2016,0.2028,0.2039,0.2048,0.2057,0.2053,0.2065,0.2084,0.2094,0.2115,0.2133,0.2148,0.2153,0.2145,0.2144,0.215,0.2153,0.2153,0.2153,0.2077,0.2143,0.2142,0.2142,0.2141,0.2141,0.2036,0.2052,0.2059,0.2075,0.2081,0.209,0.2105,0.2106,0.2121,0.2137,0.2132,0.2153,0.2162,0.2181,0.2187,0.2204,0.2195,0.2204,0.2206,0.2209,0.2211,0.2149,0.2207,0.2206,0.2206,0.2206,0.2206,0,0.2097,0.2101,0.2115,0.2128,0.2141,0.213,0.214,0.2151,0.2169,0.2177,0.219,0.2211,0.2228,0.2231,0.2247,0.226,0.2256,0.2264,0.2264,0.2265,0.2218,0.2212,0.2267,0.2267,0.2267,0.2267,0.2267,0.2267,0.2131,0.2157,0.2155,0.2183,0.2186,0.2206,0.2212,0.222,0.2227,0.225,0.2263,0.2265,0.2271,0.2287,0.2302,0.2303,0.2309,0.2319,0.2318,0.2275,0.2269,0.2263,0.2256,0.232,0.232,0.2364,0.2364,0.2364]}]]